This is the latest recevied weather packets stored in our database for station/object KD9NSC. If no packets are shown the sender has not sent any weather packets the latest 1 day(s).
| Time | Temp. | Humidity | Pressure | Rain* | Wind** | Luminosity | Snow |
|---|---|---|---|---|---|---|---|
| 1777983127 | 8.33° C | 84% | 1010 hPa | 0 mm | 0 m/s | 6 W/m² | - |
| 1777982824 | 8.33° C | 84% | 1009.9 hPa | 0 mm | 0 m/s | 4 W/m² | - |
| 1777982519 | 8.33° C | 85% | 1009.4 hPa | 0 mm | 0 m/s | 4 W/m² | - |
| 1777982213 | 8.33° C | 86% | 1009.3 hPa | 0 mm | 0 m/s | 7 W/m² | - |
| 1777981911 | 8.33° C | 86% | 1009.2 hPa | 0 mm | 0 m/s | 5 W/m² | - |
| 1777981608 | 8.89° C | 86% | 1009.5 hPa | 0 mm | 0 m/s | 5 W/m² | - |
| 1777981304 | 8.33° C | 87% | 1009.5 hPa | 0 mm | 0 m/s | 9 W/m² | - |
| 1777981001 | 8.33° C | 87% | 1009.2 hPa | 0 mm | 0 m/s | 17 W/m² | - |
| 1777980697 | 8.33° C | 88% | 1008.8 hPa | 0 mm | 0 m/s | 15 W/m² | - |
| 1777980394 | 8.33° C | 87% | 1008.6 hPa | 0 mm | 0 m/s | 10 W/m² | - |
| 1777980092 | 7.78° C | 88% | 1008.3 hPa | 0 mm | 0 m/s | 8 W/m² | - |
| 1777979786 | 8.33° C | 89% | 1008.2 hPa | 0 mm | 0 m/s | 5 W/m² | - |
| 1777979482 | 7.78° C | 89% | 1008.5 hPa | 0 mm | 0 m/s | 4 W/m² | - |
| 1777979178 | 7.78° C | 88% | 1008.7 hPa | 0 mm | 0 m/s | 2 W/m² | - |
| 1777978875 | 7.78° C | 89% | 1008.5 hPa | 0 mm | 0 m/s | 1 W/m² | - |
| 1777978572 | 7.78° C | 89% | 1008.4 hPa | 0 mm | 0 m/s | 2 W/m² | - |
| 1777978268 | 7.78° C | 88% | 1008.3 hPa | 0 mm | 0 m/s | 1 W/m² | - |
| 1777977965 | 7.78° C | 88% | 1007.8 hPa | 0 mm | 0 m/s | 1 W/m² | - |
| 1777977662 | 7.78° C | 90% | 1007.9 hPa | 0 mm | 0 m/s | 0 W/m² | - |
| 1777977359 | 8.33° C | 89% | 1008.1 hPa | 0 mm | 0 m/s | 0 W/m² | - |
| 1777977056 | 8.33° C | 89% | 1008.2 hPa | 0 mm | 0 m/s | 0 W/m² | - |
| 1777976753 | 8.33° C | 90% | 1008.3 hPa | 0 mm | 0 m/s | 0 W/m² | - |
| 1777976451 | 8.33° C | 88% | 1008.2 hPa | 0 mm | 0 m/s | 0 W/m² | - |
| 1777976149 | 8.33° C | 90% | 1008.2 hPa | 0 mm | 0 m/s | 0 W/m² | - |
| 1777975845 | 8.33° C | 91% | 1008.6 hPa | 0 mm | 0 m/s | 0 W/m² | - |
* Rain latest hour (hover to see other rain measurements)
** Current wind speed in m/s (hover to see current wind gust speed)